Wind_Speed
17 16 13 12 10 9 9 11 11 10 15 15 11 9 11 13 13 15 17 15 13 14 13 14 15 16 16 17 16 15 13 11 9 6 6 6 7 9 11 11 12 12 12 12
19 17 15 14 13 13 12 12 12 12 16 15 12 10 11 14 15 16 16 16 15 15 14 14 15 16 16 16 15 14 13 11 9 7 6 6 7 8 10 11 11 12 13 12
21 18 18 17 16 15 14 13 13 12 14 15 12 10 11 16 17 17 16 16 15 15 14 14 15 15 15 15 14 12 11 10 9 7 6 5 6 7 8 11 12 13 13 13
23 21 20 19 18 17 16 15 15 15 15 13 10 11 15 17 18 17 15 15 16 15 14 14 15 14 14 14 13 11 11 9 8 7 6 6 6 7 9 10 11 13 13 13
24 23 23 22 20 19 17 16 16 16 15 13 11 12 16 17 18 16 16 16 16 16 14 12 13 13 13 13 11 10 10 10 8 7 6 6 7 8 9 11 12 12 13 13
26 24 25 23 22 21 19 18 17 16 14 14 11 13 15 17 18 16 17 16 16 16 14 13 13 13 12 12 10 10 9 9 8 6 5 5 6 7 9 11 13 13 14 14
27 26 26 24 23 22 20 18 16 14 13 12 11 13 15 18 19 19 20 17 16 15 14 12 12 12 11 11 10 9 9 8 7 7 7 7 7 7 8 11 12 14 14 15
28 27 26 26 23 21 21 18 16 11 11 12 12 13 14 17 19 19 19 18 15 14 13 12 11 11 11 10 10 10 9 8 8 7 6 6 6 6 8 10 12 13 13 14
24 23 23 25 24 22 22 20 17 16 14 14 14 14 16 17 19 19 18 17 15 14 13 11 10 10 10 9 9 9 9 8 7 7 6 6 6 6 7 8 11 13 13 14
25 20 19 23 24 23 22 19 17 20 20 18 15 17 19 18 18 18 17 16 16 14 13 12 11 10 9 9 9 8 8 8 8 7 7 7 7 7 7 8 9 11 13 14
29 26 21 23 26 22 23 23 22 20 19 18 16 18 20 20 18 16 17 16 16 15 13 12 11 11 10 10 9 9 9 9 8 8 8 7 7 7 7 7 9 11 12 14
30 30 25 23 24 23 21 22 23 24 23 22 19 20 21 19 16 17 17 17 17 16 14 13 13 12 11 11 11 10 10 9 9 9 9 8 8 7 8 8 10 11 12 13
31 32 30 24 23 24 23 23 23 23 22 21 20 21 23 22 19 20 19 19 17 16 16 15 14 13 13 13 12 12 11 11 11 10 10 10 9 9 10 10 11 12 13 14
33 34 32 26 22 21 22 21 22 23 22 21 21 22 24 22 21 22 21 19 18 17 16 16 15 15 15 15 14 13 13 13 12 12 11 11 11 11 11 12 13 14 15 15
34 34 33 30 24 20 20 20 21 23 24 22 21 23 24 24 24 21 21 19 19 18 17 17 17 16 16 16 15 15 15 14 14 13 13 12 12 12 13 13 14 15 16 17
35 34 33 32 28 23 20 20 20 22 23 24 24 25 26 24 25 23 22 22 21 19 19 19 18 17 17 17 17 16 16 15 15 15 15 14 14 14 15 15 16 17 18 19
34 34 34 31 28 26 25 22 21 20 21 23 25 26 27 26 25 24 23 24 23 21 20 20 19 19 19 19 18 18 18 17 16 16 16 16 16 16 16 16 17 17 17 19
34 34 33 30 27 28 26 24 23 23 24 25 27 30 30 30 27 26 25 24 24 23 22 21 21 21 21 20 20 20 19 19 19 18 18 18 18 18 17 18 18 18 19 20
35 34 33 31 28 27 26 26 25 26 27 28 29 32 32 32 31 28 26 25 24 23 23 23 22 22 23 23 22 22 22 21 20 20 20 20 20 19 19 19 19 20 21 21
35 35 34 33 29 28 28 28 28 29 31 31 32 33 34 33 31 29 26 25 24 24 23 24 23 24 24 24 24 23 23 23 22 22 21 21 21 21 21 21 21 21 21 21
36 36 36 34 31 30 30 30 30 31 33 33 32 33 34 33 31 28 25 24 25 24 24 24 24 24 24 25 25 25 24 24 24 24 23 22 22 22 22 23 23 22 22 23
33 35 36 36 35 34 34 33 32 34 32 32 32 32 31 30 29 28 26 25 25 25 25 25 25 25 25 26 26 26 25 25 24 25 24 24 23 23 24 24 24 24 24 25
34 34 34 37 40 40 39 37 35 34 32 32 32 32 30 29 28 28 27 26 26 26 26 26 26 26 26 26 26 26 26 25 25 25 25 25 25 25 25 25 25 25 26 27
35 36 37 38 41 41 40 38 37 35 33 33 31 32 33 30 29 29 29 28 27 27 27 27 27 27 27 26 26 26 26 26 26 26 26 26 26 26 25 25 25 26 28 28
37 38 39 40 40 41 40 38 37 35 33 33 33 33 32 31 31 30 29 29 28 28 28 28 28 28 28 27 27 27 26 27 26 27 27 26 26 25 25 26 26 27 27 27
37 38 40 42 42 41 40 37 35 35 33 33 34 34 33 33 31 30 29 29 29 28 28 28 28 27 27 27 27 27 27 27 27 27 27 26 25 25 26 26 26 27 27 27
Wind_Direction
244 246 248 249 248 245 229 232 230 244 263 280 287 278 280 288 294 295 298 303 306 309 316 319 322 324 324 325 325 326 329 323 312 302 279 256 240 235 229 231 231 228 227 225
245 246 247 245 244 248 245 242 242 250 270 282 287 283 279 282 289 297 299 300 302 303 311 316 318 320 322 324 324 323 326 322 312 304 289 263 241 234 231 228 228 228 227 222
246 246 248 246 245 249 250 249 246 247 264 283 295 297 283 279 288 300 302 300 301 304 310 314 315 318 321 323 324 321 321 319 315 306 291 266 253 242 234 228 225 226 224 221
244 242 246 249 248 251 253 255 254 252 255 266 278 284 282 280 288 298 304 304 305 306 309 311 313 316 320 322 324 324 323 322 318 304 286 270 259 247 234 228 225 223 220 220
244 244 245 249 249 250 251 251 255 258 260 259 253 259 274 277 284 290 297 301 302 304 305 309 310 314 318 322 323 325 326 325 317 301 287 271 260 251 239 234 228 224 220 220
242 245 248 248 250 250 249 251 255 259 263 265 259 249 263 271 279 285 286 293 296 299 302 306 308 313 316 320 322 326 327 323 316 306 293 272 265 254 240 235 233 228 223 221
243 242 247 249 247 248 248 249 252 261 270 277 264 250 251 260 272 280 286 292 297 298 299 303 307 311 314 314 318 321 323 322 316 304 286 276 262 252 244 237 234 230 229 227
243 243 244 248 247 244 247 244 240 241 270 274 261 249 250 257 276 285 286 289 292 293 296 300 304 308 311 309 315 320 326 325 318 309 291 272 261 257 251 240 236 232 234 233
236 250 250 247 245 238 239 242 234 231 241 267 278 266 255 267 281 285 286 286 285 287 291 294 300 305 308 308 312 315 319 320 316 311 300 278 266 261 256 247 239 236 236 234
220 228 242 251 246 237 230 237 235 226 234 245 259 267 269 270 277 288 290 285 285 286 285 287 294 300 306 308 309 311 312 315 315 317 310 291 273 266 262 253 243 239 237 237
217 218 224 237 244 242 230 225 228 232 232 238 249 255 259 264 268 282 289 287 286 286 283 283 289 294 300 304 304 305 310 310 312 315 315 302 297 282 268 258 250 241 239 240
219 217 218 229 243 244 237 234 228 230 232 230 240 262 265 260 269 276 282 283 284 282 282 284 285 289 295 300 302 298 301 304 306 309 309 303 294 283 269 260 255 249 246 245
218 216 216 219 230 241 237 234 230 232 237 235 237 255 263 266 267 273 279 281 282 280 279 278 280 284 289 294 299 299 298 300 301 301 299 296 288 283 273 267 261 255 254 253
216 217 215 216 229 242 248 238 230 227 229 235 236 246 256 260 261 270 275 276 278 278 276 275 277 280 284 289 293 295 297 298 300 300 297 294 289 284 280 274 268 262 258 257
217 218 216 209 212 224 242 242 233 226 224 231 236 243 249 253 257 261 270 273 274 274 272 272 275 276 279 284 288 291 294 294 295 296 296 294 291 288 282 279 273 268 266 264
218 216 216 213 210 212 225 232 232 229 225 226 233 241 244 246 254 257 265 272 273 271 271 273 275 274 276 279 283 287 291 292 293 294 293 291 290 288 285 280 275 273 271 270
219 218 215 215 214 215 221 221 225 228 230 230 234 241 248 247 252 258 263 268 271 273 273 273 273 274 276 277 280 283 286 288 289 292 293 290 288 287 285 281 278 277 277 275
219 218 217 213 212 221 224 223 224 226 228 231 235 239 245 249 254 258 262 266 269 271 271 271 271 272 273 275 277 279 283 286 287 287 289 288 287 287 285 283 281 280 279 279
220 219 216 212 215 222 224 223 221 225 226 229 234 240 244 249 254 256 258 263 266 267 268 269 270 271 271 273 274 277 278 282 283 283 284 285 286 286 285 284 283 281 279 279
222 220 217 213 213 221 224 225 223 228 233 234 235 242 246 249 253 257 258 261 264 266 267 269 271 271 271 271 273 275 276 279 280 281 282 284 285 285 283 283 283 282 280 280
221 221 219 215 216 224 222 221 221 225 232 238 240 243 247 249 254 257 258 259 263 265 267 268 270 270 271 271 273 273 275 278 279 281 282 282 283 282 281 281 281 280 279 281
224 224 222 217 217 225 226 225 224 226 229 237 242 246 246 248 253 257 257 259 263 265 266 267 268 270 271 271 273 273 275 277 278 280 282 283 282 281 282 282 281 280 280 282
216 218 219 221 220 224 228 230 232 234 234 237 241 245 249 248 251 256 258 261 263 266 266 266 267 269 272 272 273 274 275 277 279 280 283 283 283 282 282 281 281 282 282 283
212 217 219 221 224 226 228 230 233 237 240 242 245 249 252 253 254 256 260 262 265 266 266 267 268 270 271 273 274 275 277 278 278 280 281 282 282 281 281 283 283 284 284 284
213 214 218 222 226 231 232 233 236 239 241 245 247 251 253 254 255 256 258 261 264 266 267 268 270 272 271 271 272 274 276 279 279 279 280 280 280 280 282 283 283 284 285 285
218 220 223 225 227 230 233 234 236 240 243 246 248 251 253 255 258 259 259 261 263 265 267 268 270 271 272 273 272 273 275 278 278 278 278 278 279 281 282 283 283 283 283 285
Height
5889 5891 5893 5895 5896 5898 5901 5903 5904 5906 5903 5902 5901 5901 5900 5898 5897 5895 5891 5889 5889 5888 5887 5886 5884 5882 5879 5877 5875 5873 5871 5869 5868 5868 5869 5870 5872 5873 5875 5877 5879 5881 5883 5885
5886 5888 5890 5891 5894 5896 5897 5899 5901 5902 5901 5900 5899 5899 5898 5897 5895 5893 5891 5889 5888 5887 5885 5884 5882 5880 5878 5876 5874 5872 5870 5869 5868 5868 5868 5869 5870 5872 5874 5875 5877 5880 5882 5884
5881 5885 5886 5888 5890 5892 5894 5896 5898 5899 5899 5897 5897 5897 5896 5895 5893 5891 5890 5887 5886 5885 5884 5882 5881 5879 5877 5875 5873 5871 5869 5868 5868 5867 5867 5867 5869 5870 5872 5874 5876 5878 5880 5882
5877 5880 5882 5884 5887 5889 5890 5892 5893 5894 5895 5895 5896 5896 5894 5892 5890 5888 5887 5885 5884 5883 5882 5881 5879 5877 5876 5874 5872 5870 5869 5868 5866 5866 5866 5867 5868 5869 5871 5872 5874 5876 5878 5881
5872 5875 5878 5880 5883 5885 5887 5889 5890 5890 5891 5892 5893 5894 5893 5889 5888 5885 5884 5883 5882 5881 5880 5879 5878 5876 5875 5873 5871 5870 5868 5867 5866 5865 5865 5865 5866 5867 5869 5870 5872 5874 5877 5879
5867 5871 5873 5876 5878 5880 5882 5884 5885 5886 5887 5889 5890 5891 5890 5887 5885 5883 5882 5881 5880 5879 5878 5877 5876 5875 5873 5872 5870 5869 5868 5866 5865 5864 5864 5864 5865 5866 5867 5868 5870 5872 5875 5877
5862 5865 5868 5871 5873 5876 5878 5881 5883 5884 5885 5886 5887 5887 5888 5884 5883 5882 5879 5878 5878 5877 5876 5876 5875 5873 5872 5871 5870 5868 5867 5865 5864 5863 5863 5863 5864 5864 5865 5866 5868 5870 5872 5875
5857 5860 5863 5865 5869 5872 5874 5877 5880 5883 5884 5882 5882 5883 5883 5882 5881 5880 5878 5876 5876 5875 5874 5874 5873 5872 5871 5870 5869 5867 5866 5865 5863 5863 5862 5862 5862 5863 5863 5864 5866 5868 5870 5872
5853 5856 5859 5860 5863 5867 5869 5872 5876 5879 5880 5881 5880 5880 5878 5877 5877 5877 5876 5875 5874 5873 5873 5872 5871 5871 5870 5869 5868 5867 5866 5864 5863 5862 5861 5861 5861 5861 5862 5863 5864 5866 5868 5870
5848 5853 5856 5856 5858 5861 5865 5868 5871 5873 5876 5878 5879 5877 5874 5873 5873 5873 5873 5872 5871 5871 5871 5870 5870 5869 5869 5868 5867 5866 5865 5864 5863 5861 5860 5860 5860 5860 5860 5861 5862 5864 5866 5867
5841 5846 5851 5853 5852 5857 5860 5863 5866 5870 5872 5875 5876 5876 5870 5869 5870 5870 5870 5869 5869 5869 5869 5868 5868 5868 5867 5867 5866 5865 5864 5863 5862 5861 5860 5859 5859 5859 5859 5860 5861 5862 5863 5865
5834 5840 5844 5848 5850 5851 5855 5858 5861 5864 5866 5869 5870 5872 5866 5867 5867 5867 5867 5866 5866 5866 5866 5866 5866 5866 5866 5865 5864 5863 5862 5861 5860 5859 5859 5858 5858 5858 5858 5859 5859 5860 5861 5862
5828 5832 5838 5843 5847 5847 5849 5853 5856 5860 5862 5864 5867 5868 5863 5863 5864 5864 5864 5864 5863 5864 5864 5864 5864 5864 5863 5863 5862 5861 5861 5860 5859 5858 5857 5857 5857 5857 5857 5857 5857 5858 5859 5860
5821 5825 5831 5838 5842 5844 5845 5848 5851 5854 5857 5860 5862 5862 5860 5859 5860 5860 5860 5861 5861 5861 5861 5861 5861 5861 5861 5861 5860 5859 5859 5858 5857 5856 5856 5855 5855 5855 5854 5854 5855 5855 5856 5857
5813 5818 5824 5830 5835 5839 5841 5843 5846 5849 5852 5855 5856 5856 5855 5854 5855 5856 5856 5857 5857 5857 5857 5858 5858 5858 5858 5858 5857 5857 5856 5855 5855 5854 5853 5853 5852 5852 5852 5852 5852 5852 5853 5853
5806 5812 5817 5823 5828 5832 5836 5838 5841 5844 5847 5849 5850 5850 5848 5847 5850 5851 5852 5853 5853 5853 5854 5854 5855 5855 5855 5855 5854 5854 5853 5852 5852 5851 5850 5850 5849 5849 5849 5849 5849 5849 5849 5850
5800 5806 5811 5817 5823 5826 5830 5833 5837 5839 5842 5844 5844 5845 5843 5843 5845 5846 5848 5849 5849 5849 5850 5850 5850 5851 5851 5851 5851 5850 5850 5849 5849 5848 5848 5847 5846 5845 5845 5845 5845 5845 5845 5846
5793 5799 5805 5811 5817 5820 5826 5829 5832 5834 5836 5838 5838 5838 5838 5838 5840 5842 5843 5844 5844 5845 5845 5846 5846 5846 5847 5847 5847 5846 5846 5846 5845 5844 5844 5843 5842 5842 5841 5841 5841 5841 5841 5841
5787 5793 5799 5805 5810 5814 5819 5822 5825 5827 5829 5831 5831 5830 5831 5833 5834 5835 5837 5838 5839 5840 5840 5841 5841 5841 5842 5842 5842 5842 5841 5841 5841 5840 5840 5839 5838 5838 5837 5837 5836 5836 5836 5835
5781 5786 5793 5798 5803 5808 5812 5814 5817 5821 5822 5823 5824 5825 5826 5827 5829 5830 5832 5833 5834 5835 5835 5835 5836 5836 5836 5836 5837 5837 5836 5836 5836 5835 5835 5834 5833 5833 5833 5832 5832 5831 5831 5830
5774 5779 5784 5790 5796 5799 5801 5805 5809 5814 5814 5816 5817 5818 5820 5821 5823 5824 5825 5828 5829 5829 5830 5830 5830 5831 5831 5831 5831 5831 5831 5831 5830 5830 5829 5829 5828 5827 5827 5827 5826 5826 5825 5825
5768 5773 5778 5784 5789 5792 5793 5797 5800 5802 5804 5807 5810 5811 5813 5815 5817 5818 5820 5822 5823 5823 5824 5824 5825 5825 5825 5825 5825 5825 5825 5825 5824 5824 5823 5823 5822 5821 5821 5820 5820 5819 5819 5819
5761 5767 5771 5775 5780 5782 5785 5788 5792 5795 5797 5800 5803 5804 5806 5807 5809 5812 5813 5815 5816 5817 5817 5818 5819 5819 5819 5819 5819 5819 5819 5819 5818 5818 5818 5817 5816 5816 5815 5814 5814 5813 5813 5812
5752 5757 5762 5767 5770 5774 5778 5781 5785 5788 5792 5794 5796 5798 5800 5801 5803 5805 5807 5808 5809 5810 5811 5812 5812 5812 5813 5813 5812 5813 5813 5812 5812 5812 5811 5811 5810 5809 5809 5808 5808 5807 5806 5805
5743 5749 5754 5759 5763 5767 5771 5775 5778 5782 5785 5787 5790 5791 5793 5795 5796 5799 5801 5802 5803 5804 5805 5805 5806 5806 5806 5806 5806 5806 5806 5806 5805 5805 5805 5804 5803 5803 5802 5802 5801 5800 5799 5797
5736 5742 5747 5750 5755 5759 5763 5767 5772 5775 5778 5780 5783 5785 5787 5789 5790 5792 5794 5795 5796 5797 5798 5798 5799 5799 5799 5799 5799 5799 5799 5799 5799 5798 5798 5797 5797 5796 5796 5795 5794 5792 5792 5790